Tracking 25195 objects as of 20-Jan-2022
HD Live streaming from Space Station
objects crossing your sky now

NUSAT-10 CAROLINE

Track NUSAT-10 CAROLINE now!
10-day predictions


NORAD ID: 46832
Int'l Code: 2020-079F
Perigee: 463.8 km
Apogee: 477.4 km
Inclination: 97.2 °
Period: 93.9 minutes
Semi major axis: 6841 km
RCS: Unknown
Launch date: November 6, 2020
Source: Argentina (ARGN)
Launch site: Taiyaun Space Center, China (TSC)
aabbcc
Your satellite tracking list
Your tracking list is empty




NASA's NSSDC Master Catalog

Two Line Element Set (TLE):
1 46832U 20079F   22020.45810481  .00008607  00000-0  26249-3 0  9995
2 46832  97.2228  94.2765 0009933 119.8655 304.7942 15.34129939 67421
Source of the keplerian elements: AFSPC